Regional Weather Roundup
Issued by NWS

Home | Current Version | Previous Version | Graphics & Text | Print | Product List | Glossary On
Versions: 1 2 3 4 5 6 7 8 9 10 11 12 13 14 15 16 17 18 19 20 21 22 23 24 25 26 27 28 29 30 31 32 33 34 35 36 37 38 39 40 41 42 43 44 45 46 47 48 49 50
000
ASUS45 KTFX 260610
RWRMT
MONTANA REGIONAL WEATHER ROUNDUP
NATIONAL WEATHER SERVICE GREAT FALLS MT
1200 AM MDT TUE MAY 26 2015

NOTE: "FAIR" INDICATES FEW OR NO CLOUDS BELOW 12000 FEET WITH NO
SIGNIFICANT WEATHER AND/OR OBSTRUCTIONS TO VISIBILITY.

MTZ001>007-043-260700-
WEST OF THE DIVIDE

CITY           SKY/WX    TMP DP  RH WIND       PRES   REMARKS
KALISPELL      CLOUDY    55  47  74 S6        29.92S
MISSOULA       MOCLDY    51  48  89 NW5       29.95S
BUTTE          LGT RAIN  47  44  90 W7        30.01R
MULLAN PASS    MOCLDY    42  41  96 S6        29.98F
DEER LODGE       N/A     50  48  93 CALM      30.02S
EUREKA           N/A     54  50  87 NW5         N/A
HAMILTON         N/A     52  46  82 S5        29.95S
LIBBY            N/A     50  46  87 E3        29.93R
RONAN            N/A     51  49  93 CALM      29.99S
THOMPSON FALLS   N/A     49  46  89 CALM      29.99R
$$

MTZ008-052>055-260700-
SOUTHWEST MONTANA

CITY           SKY/WX    TMP DP  RH WIND       PRES   REMARKS
BOZEMAN        LGT RAIN  53  47  79 E3        29.96R
DILLON         LGT RAIN  49  45  86 SW14      29.98R
W YELLOWSTONE  CLOUDY    41  41 100 CALM      30.03S
THREE FORKS      N/A     55  55 100 SW7       29.95R
$$

MTZ009-010-012-014-046-048-049-054-260700-
EAST SLOPES AND CENTRAL MONTANA

CITY           SKY/WX    TMP DP  RH WIND       PRES   REMARKS
CUT BANK       CLOUDY    53  46  77 W6        29.89F
GREAT FALLS    LGT RAIN  52  48  86 NW8       29.90F
MALMSTROM AFB  RAIN      53  49  86 NW7       29.91S
HELENA         CLOUDY    57  45  64 NW9       29.92S
CONRAD           N/A     57  52  84 S20       29.92S
$$

MTZ011-013-016-021-045-047-050-051-260700-
NORTH CENTRAL MONTANA

CITY           SKY/WX    TMP DP  RH WIND       PRES   REMARKS
HAVRE          PTCLDY    57  41  55 CALM      29.85R
LEWISTOWN      PTCLDY    53  45  74 E7        29.90S
N BAR RANCH    FAIR      52  46  82 W7        29.95S
CHINOOK          N/A     54  45  71 CALM      29.86R
FORT BENTON      N/A     57  48  72 SW12G20   29.90R
$$

MTZ017>020-022>027-061-062-260700-
NORTHEAST MONTANA

CITY           SKY/WX    TMP DP  RH WIND       PRES   REMARKS
GLASGOW        CLEAR     53  45  74 E8        29.89R
JORDAN           N/A     50  48  93 CALM      29.89S
SIDNEY         CLEAR     52  46  82 CALM      29.91R
WOLF POINT     CLEAR     51  45  79 CALM      29.90S
MALTA            N/A     62  48  60 CALM      29.85R
POPLAR           N/A     55  48  76 CALM      29.91R
SCOBEY           N/A     53  42  66 CALM      29.90S
$$

MTZ028>42-056>058-260700-
SOUTHCENTRAL AND SOUTHEAST MONTANA

CITY           SKY/WX    TMP DP  RH WIND       PRES   REMARKS
BAKER          PTCLDY    46  45  96 E6        29.94S
BILLINGS       CLEAR     57  46  66 E3        29.90S
LIVINGSTON     CLOUDY    57  44  62 CALM      29.91R
MILES CITY     PTCLDY    54  50  86 S7        29.90S
BIG TIMBER       N/A     54  45  71 E6        29.92S
EKALAKA          N/A     49  46  89 SE3       29.93S
FORSYTH          N/A     52  52 100 CALM      29.90R
LAUREL           N/A     52  41  66 NE2       29.89F
ROUNDUP          N/A     56  43  61 CALM      29.84S
$$

REGIONAL REPORTS...DAKOTAS

CITY           SKY/WX    TMP DP  RH WIND       PRES   REMARKS
WILLISTON      CLEAR     52  47  83 SW6       29.89S
MINOT          CLEAR     62  46  55 W15       29.83S
DICKINSON      CLEAR     50  46  86 SW10      29.92R
BEACH          CLOUDY    45  45 100 SE5       29.94S
CROSBY         FAIR      59  48  67 SW12      29.88S
WATFORD CITY   FAIR      46  46 100 SW6       29.89S
BISMARCK       CLEAR     57  52  83 W6        29.90R
GRAND FORKS    CLEAR     57  52  83 S12       29.83R
FARGO          CLEAR     51  49  92 SW3       29.87R
BUFFALO SD       N/A     50  49  96 SE5       29.89R
RAPID CITY     CLOUDY    53  51  93 N3        29.96S
$$

REGIONAL REPORTS...WYOMING/IDAHO/WASHINGTON

CITY           SKY/WX    TMP DP  RH WIND       PRES   REMARKS
GILLETTE       CLEAR     45  44  97 S5        29.95S
SHERIDAN       CLEAR     47  44  90 SW7       29.92F
BUFFALO WY     CLEAR     48  45  89 S8        29.96F
CODY           PTCLDY    52  45  76 W5        29.95S
YELLOWSTONE LA   N/A     38  36  92 CALM      30.09S
IDAHO FALLS    CLOUDY    53  46  77 S7        29.96F
SALMON         CLOUDY    52  46  82 SW3       29.96S
BOISE          MOCLDY    58  51  78 E5        29.89S
SPOKANE        MOCLDY    54  46  74 W6        29.91S
$$

REGIONAL REPORTS...ALBERTA

CITY           SKY/WX    TMP DP  RH WIND       PRES   REMARKS
EDMONTON       MOCLDY    61  37  41 N8        29.87R
CALGARY        MOCLDY    57  41  54 N7        29.91S
LETHBRIDGE     CLOUDY    52  46  82 W7        29.87S
MEDICINE HAT   CLOUDY    63  41  45 E6        29.84S
$$

REGIONAL REPORTS...SASKATCHEWAN

CITY           SKY/WX    TMP DP  RH WIND       PRES   REMARKS
SWIFT CURRENT  PTCLDY    57  36  44 S12       29.87R
REGINA         CLEAR     57  39  51 SW8       29.85R
SASKATOON      PTCLDY    57  43  58 W5        29.84R
$$



USA.gov is the U.S. government's official web portal to all federal, state and local government web resources and services.